FW3933 Weather Reports


Display with metric or nautical units.
time (UTC)temp
F
wind
direction
speed
MPH
gust
MPH
rain 1hr
in
rain 24hr
in
rain mn
in
humidity
%
barometer
mb
20260506012019 62 213 6.0 15.0 0.00 0.07 0.00 70 1019.3
20260506011520 62 209 4.0 15.0 0.00 0.07 0.00 69 1019.3
20260506011019 63 186 5.0 12.0 0.00 0.07 0.00 68 1019.3
20260506010519 63 201 4.0 12.0 0.00 0.07 0.00 68 1019.3
20260506010025 63 191 2.0 14.0 0.00 0.07 0.00 68 1019.2
20260506005520 63 224 6.0 14.0 0.00 0.07 0.00 68 1019.2
20260506005019 64 198 5.0 13.0 0.00 0.07 0.00 68 1019.3
20260506004528 64 195 5.0 13.0 0.00 0.07 0.00 67 1019.3
20260506004018 64 199 4.0 12.0 0.00 0.07 0.00 66 1019.3
20260506003518 64 199 3.0 13.0 0.00 0.07 0.00 66 1019.2
20260506003018 65 249 2.0 9.0 0.00 0.07 0.00 66 1019.3
20260506002518 65 171 2.0 8.0 0.00 0.07 0.00 66 1019.2
20260506002018 65 176 3.0 11.0 0.00 0.07 0.00 65 1019.2
20260506001518 66 165 3.0 11.0 0.00 0.07 0.00 64 1019.2
20260506001018 67 192 4.0 11.0 0.00 0.07 0.00 62 1019.2
20260506000519 67 219 3.0 9.0 0.00 0.07 0.00 61 1019.2
20260506000022 67 320 0.0 7.0 0.00 0.07 0.00 61 1019.2
20260505235519 67 287 0.0 6.0 0.00 0.07 0.00 60 1019.2
20260505235019 68 184 2.0 8.0 0.00 0.07 0.00 60 1019.2
20260505234520 68 217 1.0 8.0 0.00 0.07 0.00 59 1019.2
20260505234019 68 242 0.0 5.0 0.00 0.07 0.00 60 1019.2
20260505233518 69 301 0.0 4.0 0.00 0.07 0.00 59 1019.2
20260505233018 69 304 0.0 4.0 0.00 0.07 0.00 59 1019.3
20260505232518 69 313 0.0 0.0 0.00 0.07 0.00 60 1019.3
20260505232017 68 318 0.0 0.0 0.00 0.07 0.00 60 1019.3
20260505231518 69 318 0.0 3.0 0.00 0.07 0.00 59 1019.3
20260505231021 69 326 0.0 3.0 0.00 0.07 0.00 58 1019.4
20260505230521 69 326 0.0 3.0 0.00 0.07 0.00 58 1019.4
20260505230017 70 321 0.0 4.0 0.00 0.07 0.00 56 1019.5
20260505225517 70 332 0.0 5.0 0.00 0.07 0.00 55 1019.5
20260505225017 70 334 0.0 5.0 0.00 0.07 0.00 55 1019.5
20260505224526 69 88 0.0 0.0 0.00 0.07 0.00 55 1019.6
20260505224018 69 89 0.0 0.0 0.00 0.07 0.00 56 1019.7
20260505223518 69 89 0.0 2.0 0.00 0.07 0.00 54 1019.7
20260505223018 70 88 0.0 3.0 0.00 0.07 0.00 52 1019.8
20260505222516 71 88 0.0 3.0 0.00 0.07 0.00 51 1019.9
20260505222016 71 197 0.0 2.0 0.00 0.07 0.00 53 1019.9
20260505221516 71 213 0.0 4.0 0.00 0.07 0.00 53 1020.0
20260505221015 70 273 0.0 1.0 0.00 0.07 0.00 53 1020.0
20260505220514 70 273 0.0 1.0 0.00 0.07 0.00 52 1020.0
20260505220026 70 273 0.0 1.0 0.00 0.07 0.00 53 1020.0
20260505215516 70 273 0.0 3.0 0.00 0.07 0.00 55 1020.1
20260505215012 69 273 0.0 3.0 0.00 0.07 0.00 55 1020.1
20260505214516 68 279 0.0 2.0 0.00 0.07 0.00 54 1020.3
20260505214011 68 279 0.0 2.0 0.00 0.07 0.00 54 1020.3
20260505213510 68 279 0.0 2.0 0.00 0.07 0.00 54 1020.4
20260505213009 68 279 0.0 3.0 0.00 0.07 0.00 54 1020.4
20260505212509 68 279 0.0 3.0 0.00 0.07 0.00 56 1020.4
20260505212008 67 278 0.0 3.0 0.00 0.07 0.00 56 1020.4
20260505211507 67 272 0.0 4.0 0.00 0.07 0.00 56 1020.4
20260505211009 66 265 0.0 2.0 0.00 0.10 0.00 58 1020.6
20260505210508 66 265 0.0 2.0 0.00 0.10 0.00 58 1020.6
20260505210007 65 265 0.0 3.0 0.00 0.10 0.00 61 1020.7
20260505205511 64 265 0.0 3.0 0.00 0.10 0.00 62 1020.8
20260505205009 64 265 0.0 2.0 0.00 0.10 0.00 62 1020.7
20260505204514 64 265 0.0 3.0 0.00 0.10 0.00 61 1020.7
20260505204004 64 266 0.0 3.0 0.00 0.10 0.00 64 1020.7
20260505203503 63 266 0.0 4.0 0.00 0.10 0.00 66 1020.7
20260505203004 63 266 0.0 5.0 0.00 0.10 0.00 67 1020.8
20260505202504 63 261 0.0 5.0 0.00 0.10 0.00 66 1020.9
20260505202004 63 254 0.0 5.0 0.00 0.10 0.00 67 1020.9
20260505201503 64 247 0.0 5.0 0.00 0.13 0.00 67 1020.9
20260505201003 64 195 0.0 9.0 0.00 0.13 0.00 67 1021.0
20260505200503 64 192 0.0 9.0 0.00 0.13 0.00 67 1020.9
20260505200004 64 192 3.0 9.0 0.00 0.13 0.00 66 1021.0
20260505195501 64 76 1.0 5.0 0.00 0.13 0.00 64 1020.9
20260505195100 64 74 0.0 4.0 0.00 0.13 0.00 65 1021.0
20260505194603 63 72 0.0 5.0 0.00 0.13 0.00 67 1021.0
20260505194102 63 70 2.0 6.0 0.00 0.13 0.00 65 1021.0
20260505193631 63 83 2.0 6.0 0.00 0.13 0.00 65 1021.1
20260505193057 63 71 0.0 5.0 0.00 0.13 0.00 66 1021.1
20260505192601 63 96 0.0 5.0 0.00 0.13 0.00 66 1021.1
20260505192055 62 107 1.0 8.0 0.00 0.13 0.00 69 1021.1
20260505191603 62 92 2.0 8.0 0.00 0.13 0.00 66 1021.1
20260505191054 62 97 1.0 7.0 0.00 0.13 0.00 68 1021.1
20260505190112 61 100 5.0 9.0 0.00 0.13 0.00 68 1021.2
20260505185556 61 94 2.0 8.0 0.00 0.13 0.00 69 1021.2
20260505185055 61 99 2.0 7.0 0.00 0.13 0.00 69 1021.2
20260505184607 61 96 3.0 7.0 0.00 0.13 0.00 67 1021.2
20260505184055 62 107 1.0 6.0 0.00 0.13 0.00 69 1021.2
20260505183553 61 109 2.0 6.0 0.00 0.13 0.00 68 1021.2
20260505183054 61 101 1.0 6.0 0.00 0.13 0.00 68 1021.2
20260505182551 60 109 2.0 6.0 0.00 0.13 0.00 71 1021.2
20260505182054 60 92 1.0 6.0 0.00 0.13 0.00 68 1021.3
20260505181551 60 92 1.0 6.0 0.00 0.13 0.00 69 1021.3
20260505181055 59 90 1.0 6.0 0.00 0.13 0.00 69 1021.2
20260505180051 60 89 0.0 6.0 0.00 0.13 0.00 69 1021.2
20260505175548 60 82 0.0 4.0 0.00 0.13 0.00 69 1021.2
20260505175047 59 86 0.0 5.0 0.00 0.13 0.00 71 1021.2
20260505174546 59 128 0.0 3.0 0.00 0.13 0.00 71 1021.1
20260505174043 58 263 0.0 0.0 0.00 0.13 0.00 73 1021.1
20260505173542 57 263 0.0 0.0 0.00 0.13 0.00 73 1021.1
20260505173044 56 276 0.0 0.0 0.00 0.13 0.00 74 1021.1
20260505172541 56 276 0.0 1.0 0.00 0.13 0.00 75 1021.1
20260505172039 56 275 0.0 1.0 0.00 0.13 0.00 77 1021.1
20260505171542 55 275 0.0 0.0 0.00 0.13 0.00 78 1021.1
20260505171037 55 275 0.0 2.0 0.00 0.13 0.00 79 1021.1
20260505170505 54 282 0.0 0.0 0.00 0.13 0.00 79 1021.1
20260505170005 54 292 0.0 0.0 0.00 0.13 0.00 79 1021.1
20260505165501 53 231 0.0 1.0 0.00 0.13 0.00 81 1021.1
20260505165100 53 215 0.0 5.0 0.00 0.13 0.00 82 1021.1
20260505164602 53 284 0.0 5.0 0.00 0.13 0.00 81 1021.0
20260505164059 52 226 0.0 3.0 0.00 0.13 0.00 82 1021.0
20260505163558 52 298 0.0 4.0 0.00 0.13 0.00 82 1021.1
20260505163109 52 300 0.0 5.0 0.00 0.13 0.00 83 1021.1
20260505162557 52 191 1.0 5.0 0.00 0.13 0.00 83 1021.1
20260505162056 51 199 0.0 5.0 0.00 0.13 0.00 85 1021.1
20260505161555 51 199 1.0 5.0 0.00 0.13 0.00 84 1021.0
20260505161057 51 192 0.0 5.0 0.00 0.13 0.00 85 1021.0
20260505153018 50 228 1.0 9.0 0.00 0.13 0.00 87 1020.7
20260505152510 50 197 3.0 8.0 0.00 0.13 0.00 87 1020.7
20260505152015 50 233 0.0 9.0 0.00 0.13 0.00 87 1020.6
20260505151510 49 199 1.0 8.0 0.00 0.13 0.00 87 1020.6
20260505151009 49 205 1.0 7.0 0.00 0.13 0.00 87 1020.6
20260505124607 49 238 0.0 7.0 0.00 0.13 0.00 86 1019.7
20260505124059 49 206 0.0 7.0 0.00 0.13 0.00 87 1019.6
20260505123600 49 257 1.0 7.0 0.00 0.13 0.00 86 1019.6
20260505123502 49 216 1.0 8.0 0.00 0.13 0.00 86 1019.7
20260505123112 49 235 1.0 8.0 0.00 0.13 0.00 86 1019.6
20260505122558 49 208 0.0 8.0 0.00 0.13 0.00 86 1019.5
20260505122058 49 305 1.0 7.0 0.00 0.13 0.00 87 1019.5
20260505121559 49 257 1.0 6.0 0.00 0.13 0.00 86 1019.5
20260505121100 49 224 0.0 8.0 0.00 0.13 0.00 87 1019.6
20260505120058 49 220 1.0 10.0 0.00 0.13 0.00 86 1019.7
20260505115556 49 191 4.0 10.0 0.00 0.13 0.00 86 1019.6
20260505115056 49 222 2.0 10.0 0.00 0.13 0.00 86 1019.5
20260505114603 49 205 2.0 10.0 0.00 0.13 0.00 86 1019.5
20260505114055 49 210 1.0 10.0 0.00 0.13 0.00 87 1019.7
20260505113557 49 252 3.0 10.0 0.00 0.13 0.00 86 1019.6
20260505113056 49 261 0.0 8.0 0.00 0.13 0.00 87 1019.7
20260505112554 49 215 0.0 9.0 0.00 0.13 0.00 87 1019.7
20260505112054 49 246 1.0 9.0 0.00 0.13 0.00 88 1019.7
20260505111559 49 293 0.0 8.0 0.00 0.13 0.00 87 1019.6
20260505111056 49 247 2.0 7.0 0.00 0.13 0.00 87 1019.7
20260505102052 49 290 1.0 10.0 0.00 0.13 0.00 88 1019.8
20260505101552 49 295 1.0 9.0 0.00 0.13 0.00 88 1019.6
20260505101052 49 292 3.0 11.0 0.00 0.13 0.00 88 1019.6
20260505100059 49 288 3.0 12.0 0.00 0.13 0.00 88 1019.4
20260505095552 49 141 3.0 19.0 0.00 0.13 0.00 88 1019.3
20260505095054 49 265 4.0 19.0 0.00 0.13 0.00 88 1019.2
20260505094551 49 232 3.0 15.0 0.00 0.13 0.00 88 1019.1
20260505094049 49 259 4.0 15.0 0.00 0.13 0.00 89 1019.2
20260505093553 49 267 2.0 15.0 0.00 0.13 0.00 88 1019.2
20260505093050 49 305 0.0 19.0 0.00 0.13 0.00 88 1019.2
20260505092552 49 186 2.0 19.0 0.00 0.13 0.00 89 1019.4
20260505092047 49 310 2.0 15.0 0.00 0.13 0.00 88 1019.4
20260505091549 49 205 4.0 15.0 0.00 0.13 0.00 88 1019.7
20260505091045 49 290 1.0 13.0 0.00 0.13 0.13 89 1019.5
20260505090052 49 164 1.0 11.0 0.00 0.13 0.13 88 1019.5
20260505085544 49 161 1.0 11.0 0.00 0.13 0.13 88 1019.5
20260505085047 49 129 1.0 9.0 0.00 0.13 0.13 88 1019.7
20260505084544 49 238 2.0 10.0 0.00 0.13 0.13 88 1019.8
20260505084044 49 278 5.0 25.0 0.00 0.13 0.13 89 1019.8
20260505083543 49 247 5.0 25.0 0.00 0.13 0.13 89 1020.0
20260505083044 49 263 2.0 25.0 0.00 0.13 0.13 88 1020.2
20260505082543 49 263 2.0 25.0 0.00 0.13 0.13 88 1020.3
20260505082043 49 245 3.0 13.0 0.00 0.13 0.13 86 1020.3
20260505081547 49 276 5.0 12.0 0.00 0.13 0.13 86 1020.4
20260505081043 49 255 5.0 12.0 0.00 0.13 0.13 86 1020.4
20260505080051 49 292 3.0 14.0 0.00 0.13 0.13 87 1020.3
20260505075542 49 290 5.0 14.0 0.00 0.13 0.13 87 1020.3
20260505075043 49 236 1.0 7.0 0.00 0.13 0.13 88 1020.4
20260505074542 49 238 1.0 10.0 0.00 0.13 0.13 90 1020.4
20260505074046 49 294 4.0 15.0 0.00 0.13 0.13 89 1020.3
20260505073546 49 275 4.0 15.0 0.00 0.13 0.13 90 1020.3
20260505073054 49 356 0.0 9.0 0.00 0.13 0.13 90 1020.3
20260505072545 49 74 1.0 6.0 0.00 0.13 0.13 90 1020.5
20260505072041 49 256 1.0 11.0 0.00 0.13 0.13 89 1020.5
20260505071542 49 288 1.0 10.0 0.00 0.13 0.13 89 1020.2
20260505071043 49 278 2.0 9.0 0.00 0.13 0.13 90 1019.8
20260505070051 49 205 2.0 10.0 0.00 0.13 0.13 89 1020.3
20260505065543 49 288 1.0 15.0 0.00 0.13 0.13 89 1020.6
20260505065042 50 251 3.0 15.0 0.00 0.13 0.13 89 1020.1
20260505064542 50 293 3.0 13.0 0.00 0.13 0.13 89 1020.1
20260505064044 50 242 4.0 13.0 0.00 0.13 0.13 89 1020.0
20260505063542 50 317 3.0 12.0 0.00 0.13 0.13 89 1020.0
20260505063042 50 317 1.0 13.0 0.00 0.13 0.13 89 1020.2
20260505062541 49 305 4.0 13.0 0.00 0.13 0.13 88 1020.7
20260505062041 50 321 5.0 17.0 0.00 0.13 0.13 89 1020.8
20260505061541 50 273 3.0 11.0 0.00 0.13 0.13 89 1020.7
20260505061040 49 226 1.0 13.0 0.00 0.13 0.13 89 1020.6
20260505060042 49 209 2.0 12.0 0.00 0.13 0.13 89 1020.5
20260505055542 49 163 1.0 11.0 0.00 0.13 0.13 89 1020.4
20260505055048 49 291 2.0 11.0 0.00 0.13 0.13 89 1020.4
20260505054542 50 322 2.0 11.0 0.00 0.13 0.13 90 1020.7
20260505054043 49 255 2.0 13.0 0.02 0.13 0.13 90 1020.4
20260505053545 49 232 5.0 13.0 0.02 0.13 0.13 89 1020.4
20260505053041 49 257 3.0 12.0 0.02 0.13 0.13 90 1020.5
20260505052543 49 259 4.0 12.0 0.04 0.13 0.13 90 1020.4
20260505052041 49 233 5.0 14.0 0.06 0.13 0.13 90 1020.6
20260505051541 49 232 6.0 14.0 0.07 0.13 0.13 90 1020.4
20260505051040 50 239 4.0 14.0 0.07 0.13 0.13 90 1020.5
20260505050117 50 289 4.0 14.0 0.07 0.13 0.13 91 1020.5
20260505041549 52 295 4.0 13.0 0.00 0.06 0.06 87 1020.4
20260505041036 52 244 3.0 10.0 0.00 0.06 0.06 87 1020.6
20260505040048 52 230 3.0 13.0 0.00 0.06 0.06 86 1020.2
20260505035537 52 309 2.0 12.0 0.00 0.06 0.06 86 1020.1
20260505035036 52 299 1.0 12.0 0.00 0.06 0.06 85 1020.0
20260505034537 52 205 3.0 12.0 0.00 0.06 0.06 85 1020.1
20260505034036 52 303 4.0 12.0 0.00 0.06 0.06 86 1020.1
20260505033536 52 240 2.0 13.0 0.00 0.06 0.06 87 1020.1
20260505033041 52 258 1.0 12.0 0.00 0.06 0.06 88 1020.0
20260505032536 52 221 1.0 12.0 0.00 0.06 0.06 87 1019.9
20260505032035 52 197 4.0 13.0 0.00 0.06 0.06 87 1019.8
20260505031544 52 208 4.0 17.0 0.00 0.06 0.06 86 1019.8
20260505031036 52 176 8.0 17.0 0.00 0.06 0.06 86 1019.7
20260505030040 52 201 2.0 15.0 0.00 0.06 0.06 86 1019.7
20260505025536 52 167 4.0 15.0 0.00 0.06 0.06 86 1019.5
20260505025036 52 151 6.0 14.0 0.00 0.06 0.06 86 1019.5
20260505024536 52 192 3.0 13.0 0.00 0.06 0.06 86 1019.6
20260505024036 52 185 0.0 23.0 0.00 0.06 0.06 86 1019.5
20260505023537 52 188 9.0 23.0 0.00 0.06 0.06 85 1018.7
20260505023042 52 201 8.0 17.0 0.00 0.06 0.06 84 1019.2
20260505022535 52 201 7.0 16.0 0.00 0.06 0.06 84 1019.5
20260505022034 52 225 6.0 16.0 0.00 0.06 0.06 84 1019.6
20260505021539 52 181 7.0 16.0 0.00 0.06 0.06 84 1019.7
20260505021035 52 213 5.0 16.0 0.00 0.06 0.06 84 1019.7
20260505020036 52 174 7.0 15.0 0.00 0.06 0.06 86 1019.9
20260505015533 52 208 6.0 15.0 0.00 0.06 0.06 86 1019.8
20260505015033 52 249 5.0 13.0 0.00 0.06 0.06 86 1019.8
20260505014540 52 237 3.0 12.0 0.00 0.06 0.06 85 1019.9
20260505014033 52 229 7.0 12.0 0.00 0.06 0.06 84 1019.9
20260505013532 52 181 6.0 15.0 0.00 0.06 0.06 85 1019.9
20260505013034 53 199 6.0 14.0 0.00 0.06 0.06 84 1019.8
20260505012532 53 221 4.0 13.0 0.00 0.06 0.06 84 1019.9